OneWeb SL0150

operational
NORAD ID: 48047 Int'l Des: 2021-025 Owner: ONEWEBN Country: UK Constellation: oneweb
LEOCIRCULARPOLARONEWEB_TYPE

Über OneWeb SL0150

Beschreibung wird geladen...

Live-Position

3D-Globus wird geladen...

Nächste Überflüge

Höhenverlauf

Altitude vs Time

uPlot chart will show altitude changes over time

Zweizeiliger Elementsatz

1 48047U 21025F 25306.39838860 .00000154 00000-0 38707-3 0 9992
2 48047 87.9037 5.2762 0001691 94.5311 265.6011 13.13471687223774
Epoch: 2. Nov. 2025 • Age: 33 hours

Aktueller Status

Höhe 1211.8 km
Geschwindigkeit 7.25 km/s
Subsatellitenpunkt 19.68°N, 43.94°E
Startdatum 25. März 2021
Alter 4.6 years
Typ internet

Technische Details

Klassifizierung Payload
Masse 148.00 kg
Trockenmasse 140.00 kg
Gesamtmasse 148.00 kg
Länge 1.30 m
Durchmesser 1.00 m
Spannweite 5.00 m
Form Trapezoid+2 pan
Hersteller ONEWUS
Bus-Typ ARROW
Phasenstatus In Orbit
Besitzer/Staat ONEWEBN/UK

Große Konstellationen

Loading constellations...